Location: Dos Palmas
(32.4468°N, 116.8732°W)
Time: 07:24:09
(UTC+00:00)

Hubble Space Telescope - Pass Details

Date: 04 December 2022
Orbit: 529 x 532 km, 28.5° (Epoch: 29 January)

Event Time Altitude Azimuth Distance (km) Brightness Sun altitude
Rises 13:49:53 0° 221° (SW) 2,645 4.1 -9.3°
Maximum altitude 13:55:26 17° 159° (SSE) 1,355 3.4 -8.2°
Drops below altitude 10° 13:58:10 10° 116° (ESE) 1,759 5.2 -7.7°
Sets 14:00:59 0° 96° (E) 2,649 6.1 -7.1°
